Stations météo

réclame
Mon MeteoGroup
Berlin-Schönefeld, Allemagne (10385): Température de l'air & dewpoint: 18.05.2019 03:00:00 - 24.05.2019 03:00:00 (CEST)Berlin-Schönefeld, Allemagne (10385): Température de l'air 5cm & Température de l'air -5cm: 18.05.2019 03:00:00 - 24.05.2019 03:00:00 (CEST)Berlin-Schönefeld, Allemagne (10385): Température de l'air -20cm & Température de l'air -100cm: 18.05.2019 03:00:00 - 24.05.2019 03:00:00 (CEST)Berlin-Schönefeld, Allemagne (10385): Vitesse du vent & gusts: 18.05.2019 03:00:00 - 24.05.2019 03:00:00 (CEST)Berlin-Schönefeld, Allemagne (10385): Direction du vent: 18.05.2019 03:00:00 - 24.05.2019 03:00:00 (CEST)Berlin-Schönefeld, Allemagne (10385): reduced air pressure: 18.05.2019 03:00:00 - 24.05.2019 03:00:00 (CEST)Berlin-Schönefeld, Allemagne (10385): visibility: 18.05.2019 03:00:00 - 24.05.2019 03:00:00 (CEST)Berlin-Schönefeld, Allemagne (10385): Ensoleillement: 18.05.2019 03:00:00 - 24.05.2019 03:00:00 (CEST)Berlin-Schönefeld, Allemagne (10385): Quantités de précipitations: 18.05.2019 03:00:00 - 24.05.2019 03:00:00 (CEST)
Date & Time tt [°C] td [°C] tt 5cm [°C] tt -5cm [°C] tt -20cm [°C] tt -100cm [°C] ff [km/h] ff [knt] fx [km/h] fx [knt] dd ppp [hPa] vv [km] sd [min] rr [mm]
24.05.2019 03:00:00 10,2 7,4 7,0 11,8 15,2 13,0 8 4 9 5 S 1016,7 50 0 0,0
24.05.2019 02:00:00 9,8 7,7 5,0 12,4 15,6 13,0 4 2 8 4 - 1016,9 10 0 0,0
24.05.2019 01:00:00 10,6 7,8 6,0 13,2 16,0 13,0 4 2 8 4 SSE 1017,1 10 0 0,0
24.05.2019 00:00:00 12,4 8,0 7,7 14,1 16,4 13,0 8 4 13 7 SE 1017,3 10 0 0,0
23.05.2019 23:00:00 14,0 7,6 10,7 15,0 16,8 13,0 8 5 14 7 ESE 1017,4 55 0 0,0
23.05.2019 22:00:00 13,9 7,3 9,1 15,8 17,2 13,0 8 4 11 6 E 1017,6 10 0 0,0
23.05.2019 21:00:00 15,5 7,2 10,3 17,2 17,5 13,1 8 4 16 9 NNE 1017,2 10 0 0,0
23.05.2019 20:00:00 17,6 6,7 17,0 18,6 17,7 13,1 12 6 18 10 NNE 1017,1 60 9 0,0
23.05.2019 19:00:00 19,0 6,6 20,1 19,7 17,9 13,1 7 4 21 11 NNE 1017,0 60 49 0,0
23.05.2019 18:00:00 19,1 5,0 20,9 20,4 17,9 13,1 15 8 24 13 W 1017,1 10 58 0,0
23.05.2019 17:00:00 18,9 4,9 23,0 22,1 17,6 13,1 12 7 29 16 NW 1017,3 60 60 0,0
23.05.2019 16:00:00 18,0 5,2 22,2 23,5 17,1 13,1 13 7 28 15 NNW 1017,7 10 60 0,0
23.05.2019 15:00:00 17,9 5,9 21,7 22,9 16,6 13,1 15 8 26 14 W 1018,0 55 60 0,0
23.05.2019 14:00:00 17,1 5,4 20,9 22,5 16,0 13,1 15 8 31 17 W 1018,4 10 60 0,0
23.05.2019 13:00:00 16,9 4,5 20,4 22,3 15,3 13,1 17 9 36 19 WNW 1018,6 50 60 0,0
23.05.2019 12:00:00 15,7 5,5 19,3 21,0 14,5 13,1 13 7 32 17 W 1018,8 10 60 0,0
23.05.2019 11:00:00 14,8 6,8 18,0 19,3 13,7 13,1 16 9 30 16 WNW 1018,9 10 59 0,0
23.05.2019 10:00:00 13,6 6,4 16,4 17,1 13,1 13,1 16 9 31 17 NW 1019,0 10 56 0,0
23.05.2019 09:00:00 12,5 6,9 14,1 14,9 12,7 13,1 14 8 22 12 NW 1018,8 30 60 0,0
23.05.2019 08:00:00 10,5 7,3 11,3 11,8 12,7 13,1 12 6 19 10 NW 1018,7 30 36 0,0
23.05.2019 07:00:00 9,1 7,1 8,5 10,5 12,8 13,1 13 7 21 11 WNW 1018,5 10 0 0,0
23.05.2019 06:00:00 10,3 7,1 10,0 10,7 13,0 13,1 13 7 22 12 NW 1017,9 10 0 0,0
23.05.2019 05:00:00 10,8 7,2 10,3 10,8 13,1 13,1 15 8 26 14 NW 1017,7 10 0 0,0
23.05.2019 04:00:00 11,3 7,6 10,9 11,0 13,3 13,1 15 8 29 16 NW 1017,6 10 0 0,0
23.05.2019 03:00:00 11,6 7,6 11,0 11,1 13,4 13,1 16 9 34 18 NW 1017,4 10 0 0,0
23.05.2019 02:00:00 12,0 7,8 11,5 11,5 13,6 13,1 21 11 31 17 NW 1017,3 45 0 0,0
23.05.2019 01:00:00 12,2 8,1 11,7 11,7 13,8 13,1 18 10 27 15 WNW 1017,1 45 0 0,0
23.05.2019 00:00:00 12,5 7,9 12,0 11,9 13,9 13,1 18 10 32 17 NW 1016,8 10 0 0,0
22.05.2019 23:00:00 12,7 8,0 12,3 12,1 14,1 13,1 21 11 36 19 WNW 1016,6 10 0 0,0
22.05.2019 22:00:00 13,0 8,2 12,5 12,3 14,2 13,1 22 12 38 21 WNW 1016,2 10 0 0,0
22.05.2019 21:00:00 13,1 8,9 12,7 12,6 14,4 13,1 24 13 42 23 WNW 1015,6 10 0 0,0
22.05.2019 20:00:00 13,0 9,6 12,7 12,9 14,6 13,1 24 13 40 22 WNW 1015,0 20 0 0,0
22.05.2019 19:00:00 13,0 9,6 12,7 13,1 14,7 13,1 26 14 41 22 NW 1014,8 20 0 0,0
22.05.2019 18:00:00 12,7 10,0 12,6 13,4 14,9 13,1 26 14 37 20 WNW 1014,4 10 0 0,0
22.05.2019 17:00:00 12,5 10,5 12,6 13,6 15,0 13,0 28 15 39 21 WNW 1014,2 10 0 0,0
22.05.2019 16:00:00 12,8 10,4 12,8 13,9 15,1 13,0 26 14 42 23 WNW 1013,9 10 0 0,0
22.05.2019 15:00:00 12,7 10,5 12,8 14,1 15,2 13,0 28 15 46 25 NW 1013,5 10 0 0,0
22.05.2019 14:00:00 12,8 10,9 13,0 14,4 15,3 13,0 29 15 43 23 WNW 1013,3 17 0 0,0
22.05.2019 13:00:00 12,7 10,7 12,9 14,7 15,4 13,0 30 16 42 23 WNW 1012,8 18 0 0,0
22.05.2019 12:00:00 12,7 10,4 13,0 14,5 15,4 13,0 28 15 44 24 WNW 1012,3 10 0 0,0
22.05.2019 11:00:00 12,4 10,7 12,4 14,1 15,6 13,0 31 17 49 27 WNW 1011,9 10 0 0,0
22.05.2019 10:00:00 12,3 11,0 12,0 14,2 15,8 12,9 26 14 46 25 WNW 1011,5 19 0 0,3
22.05.2019 09:00:00 12,6 11,2 12,2 14,3 16,0 12,9 34 18 45 24 WNW 1011,0 10 0 0,9
22.05.2019 08:00:00 12,8 11,5 12,4 14,5 16,2 12,9 29 16 44 24 WNW 1010,4 12 0 1,2
22.05.2019 07:00:00 13,2 12,3 12,8 14,7 16,4 12,9 24 13 39 21 WNW 1010,2 6 0 0,2
22.05.2019 06:00:00 13,9 12,9 13,5 15,1 16,7 12,9 23 12 34 18 NW 1009,8 5 0 0,1
22.05.2019 05:00:00 14,4 12,8 14,3 15,4 16,9 12,9 21 12 29 16 WNW 1009,4 25 0 0,0
22.05.2019 04:00:00 14,7 13,0 14,6 15,8 17,2 12,8 22 12 36 20 WNW 1009,2 25 0 0,0
22.05.2019 03:00:00 15,4 13,2 15,2 16,2 17,4 12,8 24 13 40 21 NW 1008,7 12 0 0,0
22.05.2019 02:00:00 16,3 14,7 15,8 16,4 17,7 12,8 19 10 31 17 WNW 1008,3 15 0 0,0
22.05.2019 01:00:00 16,5 14,2 16,0 16,7 18,0 12,8 16 9 27 14 NW 1008,3 40 0 0,0
22.05.2019 00:00:00 17,0 14,5 16,2 17,3 18,3 12,8 13 7 28 15 NW 1007,9 10 0 0,0
21.05.2019 23:00:00 17,8 15,4 17,0 17,8 18,7 12,8 22 12 31 17 NW 1007,8 10 0 0,2
21.05.2019 22:00:00 20,0 13,2 19,3 18,1 19,1 12,8 18 10 25 13 NNW 1007,2 50 0 0,0
21.05.2019 21:00:00 21,0 12,7 20,0 19,0 19,5 12,8 16 9 22 12 NW 1006,4 55 27 0,0
21.05.2019 20:00:00 21,8 12,5 21,4 20,0 19,9 12,7 16 8 26 14 NW 1005,8 55 54 0,0
21.05.2019 19:00:00 22,2 12,3 21,5 20,9 20,3 12,7 22 12 29 16 NW 1005,5 55 46 0,0
21.05.2019 18:00:00 23,3 12,4 23,8 22,7 20,6 12,7 18 10 29 16 NW 1005,1 10 40 0,0
21.05.2019 17:00:00 23,5 11,5 24,3 25,9 20,3 12,7 13 7 22 12 WNW 1005,0 10 58 0,0
21.05.2019 16:00:00 23,4 12,3 26,4 27,3 19,9 12,7 9 5 18 10 WSW 1005,1 10 56 0,0
21.05.2019 15:00:00 23,0 12,2 26,7 26,0 19,5 12,7 5 3 15 8 N 1005,2 10 35 0,0
21.05.2019 14:00:00 22,2 12,3 27,7 26,7 18,8 12,7 5 3 18 10 SSW 1005,2 10 39 0,0
21.05.2019 13:00:00 21,9 12,9 26,7 26,4 18,0 12,7 8 4 13 7 - 1004,9 10 34 0,0
21.05.2019 12:00:00 20,7 11,5 22,4 25,2 17,1 12,7 7 4 15 8 E 1004,8 50 32 0,0
21.05.2019 11:00:00 20,5 11,6 25,4 24,7 16,1 12,7 8 4 15 8 S 1004,6 10 60 0,0
21.05.2019 10:00:00 19,1 14,3 22,6 21,8 15,3 12,6 8 4 15 8 SE 1004,2 10 60 0,0
21.05.2019 09:00:00 17,0 12,8 17,2 18,6 14,7 12,6 6 4 9 5 NE 1004,2 35 60 0,0
21.05.2019 08:00:00 15,4 12,6 15,5 15,6 14,5 12,6 8 4 15 8 E 1003,8 30 60 0,0
21.05.2019 07:00:00 13,7 12,6 13,4 13,1 14,7 12,6 9 5 13 7 ENE 1003,7 22 60 0,0
21.05.2019 06:00:00 12,3 11,8 10,7 12,2 15,0 12,6 5 3 9 5 NE 1003,6 10 14 0,0
21.05.2019 05:00:00 11,9 11,5 10,3 12,3 15,3 12,6 8 4 9 5 NE 1003,0 6 0 0,0
21.05.2019 04:00:00 12,2 12,0 9,3 12,8 15,7 12,5 8 4 9 5 NE 1002,8 4,3 0 0,0
21.05.2019 03:00:00 13,0 12,8 11,1 13,2 16,1 12,5 9 5 9 5 ENE 1002,8 4,6 0 0,0
21.05.2019 02:00:00 13,4 13,2 10,6 13,8 16,5 12,5 8 4 9 5 NE 1002,5 3,8 0 0,0
21.05.2019 01:00:00 13,6 13,4 10,3 14,6 16,9 12,5 5 3 11 6 ENE 1002,3 2,1 0 0,0
21.05.2019 00:00:00 14,0 13,4 11,9 15,4 17,3 12,5 9 5 15 8 E 1002,4 10 0 0,0
20.05.2019 23:00:00 15,1 14,4 13,1 16,3 17,7 12,4 8 5 16 9 E 1002,1 40 0 0,0
20.05.2019 22:00:00 15,9 15,2 14,6 17,4 17,9 12,4 8 5 27 15 E 1001,6 15 0 0,0
20.05.2019 21:00:00 17,5 16,5 17,4 18,3 18,1 12,4 12 6 23 12 ESE 1001,3 18 0 0,0
20.05.2019 20:00:00 18,2 16,3 17,9 18,9 18,3 12,4 9 5 18 10 NE 1000,7 10 1 0,0
20.05.2019 19:00:00 18,0 15,8 18,3 19,1 18,6 12,4 13 7 18 10 NNE 1000,4 30 4 0,0
20.05.2019 18:00:00 17,3 15,9 16,9 18,9 18,9 12,4 15 8 24 13 NNW 1001,3 10 0 10,0
20.05.2019 17:00:00 20,0 15,7 17,6 20,4 19,2 12,3 12 7 22 12 N 1000,8 2,8 0 1,9
20.05.2019 16:00:00 22,4 13,5 22,0 22,5 19,2 12,3 13 7 27 15 NE 1000,7 10 0 0,0
20.05.2019 15:00:00 23,0 13,7 25,2 24,1 19,0 12,3 20 11 30 16 NNE 1001,3 40 0 0,0
20.05.2019 14:00:00 23,3 12,0 26,7 24,2 18,7 12,3 22 12 31 17 ENE 1001,9 10 0 0,0
20.05.2019 13:00:00 22,9 12,5 24,4 25,5 18,1 12,3 21 11 31 17 ENE 1002,1 45 23 0,0
20.05.2019 12:00:00 23,0 13,0 28,1 25,3 17,3 12,2 14 8 29 16 NE 1002,3 45 48 0,0
20.05.2019 11:00:00 22,0 13,9 28,4 23,9 16,5 12,2 16 9 26 14 ENE 1002,7 40 60 0,0
20.05.2019 10:00:00 20,0 13,4 22,5 21,1 15,9 12,2 18 10 22 12 NE 1002,8 10 59 0,0
20.05.2019 09:00:00 17,9 13,2 19,7 18,3 15,6 12,2 13 7 18 10 NNE 1003,1 30 56 0,0
20.05.2019 08:00:00 16,0 13,2 15,4 16,1 15,5 12,2 13 7 18 10 NE 1003,2 25 37 0,0
20.05.2019 07:00:00 14,7 13,4 13,8 14,4 15,7 12,1 13 7 16 9 ENE 1003,2 10 46 0,0
20.05.2019 06:00:00 14,0 13,1 12,8 13,7 16,0 12,1 10 6 15 8 ENE 1003,1 17 0 0,0
20.05.2019 05:00:00 13,7 12,9 11,9 13,9 16,3 12,1 9 5 13 7 NE 1003,3 17 0 0,0
20.05.2019 04:00:00 14,2 13,2 11,4 14,4 16,7 12,1 7 4 11 6 NNE 1003,5 20 0 0,0
20.05.2019 03:00:00 14,6 13,6 12,6 14,7 17,1 12,0 9 5 11 6 NE 1003,8 20 0 0,0
20.05.2019 02:00:00 15,0 13,6 11,2 15,4 17,6 12,0 10 5 13 7 NE 1003,8 22 0 0,0
20.05.2019 01:00:00 15,7 13,7 13,0 16,2 18,0 12,0 8 4 16 9 NNE 1004,1 10 0 0,0
20.05.2019 00:00:00 16,8 14,0 14,5 17,1 18,5 12,0 11 6 15 8 ENE 1004,1 10 0 0,0
19.05.2019 23:00:00 18,1 14,7 16,4 18,2 18,9 12,0 13 7 30 16 ENE 1004,1 10 0 0,1
19.05.2019 22:00:00 20,2 14,5 18,0 19,0 19,3 11,9 16 9 29 16 NE 1003,9 10 0 0,3
19.05.2019 21:00:00 20,7 15,3 19,6 20,1 19,8 11,9 13 7 29 16 E 1004,3 10 10 0,0
19.05.2019 20:00:00 21,3 14,6 21,2 21,0 20,3 11,9 13 7 21 11 NNE 1003,7 10 51 0,0
19.05.2019 19:00:00 21,2 14,4 21,1 21,8 20,8 11,9 15 8 24 13 NNE 1003,8 10 9 0,0
19.05.2019 18:00:00 21,8 14,5 23,0 24,3 21,1 11,9 19 11 28 15 NE 1003,9 30 29 0,0
19.05.2019 17:00:00 20,2 15,6 19,2 27,0 20,9 11,9 22 12 41 22 NE 1004,3 10 21 1,8
19.05.2019 16:00:00 24,9 11,1 32,0 30,9 20,3 11,9 15 8 27 14 E 1004,3 10 46 0,0
19.05.2019 15:00:00 23,5 11,3 27,3 30,2 19,5 11,8 21 11 35 19 ENE 1004,7 10 40 0,0
19.05.2019 14:00:00 24,2 10,2 29,8 30,6 18,4 11,8 21 11 33 18 E 1004,9 10 45 0,0
19.05.2019 13:00:00 24,9 11,2 33,6 29,3 17,3 11,8 18 10 34 18 SE 1005,3 10 59 0,0
19.05.2019 12:00:00 23,5 11,6 30,1 26,4 16,2 11,8 21 11 37 20 ESE 1005,8 10 60 0,0
19.05.2019 11:00:00 22,0 10,7 27,5 23,2 15,3 11,8 28 15 37 20 E 1006,2 10 59 0,0
19.05.2019 10:00:00 20,2 10,4 24,3 20,7 14,5 11,7 13 7 18 10 E 1006,5 10 60 0,0
19.05.2019 09:00:00 18,0 10,4 20,9 18,0 14,0 11,7 9 5 15 8 E 1006,8 30 60 0,0
19.05.2019 08:00:00 15,3 10,3 16,7 14,8 13,8 11,7 9 5 11 6 E 1006,8 10 52 0,0
19.05.2019 07:00:00 13,1 10,2 12,2 12,5 13,9 11,7 5 3 8 4 NE 1006,9 30 47 0,0
19.05.2019 06:00:00 10,8 8,7 8,8 11,2 14,2 11,7 4 2 9 5 E 1006,9 25 9 0,0
19.05.2019 05:00:00 10,5 8,5 7,5 11,3 14,6 11,6 8 4 13 7 E 1006,8 10 0 0,0
19.05.2019 04:00:00 10,2 8,4 7,5 11,7 15,1 11,6 9 5 13 7 ENE 1006,9 45 0 0,0
19.05.2019 03:00:00 10,8 8,6 8,3 12,2 15,6 11,6 8 4 9 5 NE 1007,0 10 0 0,0
19.05.2019 02:00:00 12,0 9,2 7,0 12,9 16,1 11,6 2 1 11 6 ENE 1006,9 10 0 0,0
19.05.2019 01:00:00 13,0 9,4 9,4 13,7 16,6 11,6 5 3 9 5 E 1007,2 10 0 0,0
19.05.2019 00:00:00 13,9 10,0 8,3 14,7 17,2 11,6 2 1 9 5 ESE 1007,1 10 0 0,0
18.05.2019 23:00:00 15,3 9,6 10,2 16,1 17,8 11,5 6 3 9 5 ESE 1007,3 50 0 0,0
18.05.2019 22:00:00 16,7 9,7 12,9 17,6 18,3 11,5 5 3 19 10 SSE 1007,2 10 0 0,0
18.05.2019 21:00:00 19,6 9,5 16,6 19,5 18,7 11,5 9 5 15 8 S 1006,5 10 34 0,0
18.05.2019 20:00:00 22,0 8,7 22,9 21,5 18,9 11,5 11 6 16 9 S 1006,1 55 60 0,0
18.05.2019 19:00:00 23,4 8,1 26,3 22,3 19,0 11,5 11 6 22 12 S 1006,1 10 60 0,0
18.05.2019 18:00:00 23,5 7,2 25,1 23,4 19,0 11,5 14 7 29 16 S 1006,1 50 60 0,0
18.05.2019 17:00:00 23,5 6,2 29,5 26,3 18,6 11,5 16 9 29 16 SSE 1006,2 50 60 0,0
18.05.2019 16:00:00 23,5 8,4 28,6 26,3 18,0 11,5 18 10 45 24 ESE 1006,4 10 34 0,0
18.05.2019 15:00:00 23,8 7,8 32,7 27,8 17,1 11,5 25 14 41 22 SSE 1006,6 50 50 0,0
18.05.2019 14:00:00 21,8 9,1 25,5 25,7 16,3 11,5 26 14 44 24 ESE 1007,0 10 51 0,0
18.05.2019 13:00:00 22,1 8,8 28,0 24,4 15,4 11,5 28 15 45 24 SE 1007,2 10 60 0,0
18.05.2019 12:00:00 20,7 8,4 25,4 22,8 14,5 11,5 26 14 39 21 E 1007,8 50 60 0,0
18.05.2019 11:00:00 19,6 9,7 24,8 21,4 13,6 11,4 16 9 31 17 ESE 1008,3 10 60 0,0
18.05.2019 10:00:00 17,3 9,6 21,6 19,2 12,8 11,4 13 7 22 12 ESE 1009,0 50 60 0,0
18.05.2019 09:00:00 16,2 9,8 17,6 16,0 12,3 11,4 12 7 21 11 ESE 1009,2 45 60 0,0
18.05.2019 08:00:00 13,7 10,8 13,3 12,7 12,1 11,4 14 8 18 10 E 1009,3 10 56 0,0
18.05.2019 07:00:00 10,2 9,5 8,9 10,0 12,4 11,4 11 6 16 9 E 1009,4 6 30 0,0
18.05.2019 06:00:00 9,5 9,0 7,1 9,6 12,7 11,4 7 4 11 6 E 1009,5 4,5 4 0,0
18.05.2019 05:00:00 9,3 8,8 5,4 9,9 13,1 11,4 6 3 11 6 E 1009,5 12 0 0,0
18.05.2019 04:00:00 10,2 9,3 6,9 10,6 13,4 11,4 9 5 12 6 E 1009,6 10 0 0,0
18.05.2019 03:00:00 10,5 9,3 7,2 11,2 13,8 11,4 10 5 15 8 E 1009,6 30 0 0,0

tt = Température de l'air
td = dewpoint
tt 5cm = Température de l'air 5cm
tt -5cm = Température de l'air -5cm
tt -20cm = Température de l'air -20cm
tt -100cm = Température de l'air -100cm
ff = Vitesse du vent
fx = gusts
dd = Direction du vent
ppp = reduced air pressure
vv = visibility
sd = Ensoleillement
rr = Quantités de précipitations

stations d'obs. à proximité